Location: Nirvana
(45.0297°N, 77.2628°W)
Time: 01:05:55
(UTC-05:00)

Envisat - Pass Details

Date: 23 October 2019
Orbit: 764 x 766 km, 98.1° (Epoch: 19 November)

Event Time Altitude Azimuth Distance (km) Brightness Sun altitude
Rises 19:58:09 0° 192° (SSW) 3,219 6.3 -19.6°
Reaches altitude 10° 20:00:41 10° 202° (SSW) 2,297 5.7 -20.0°
Maximum altitude 20:05:10 31° 265° (W) 1,313 4.9 -20.8°
Drops below altitude 10° 20:09:41 10° 327° (NNW) 2,312 6.0 -21.6°
Sets 20:12:15 0° 338° (NNW) 3,243 6.6 -22.1°
